Search the data

BODC Cruise Metadata Report for RRS Charles Darwin (74AB) cruise CD44

Introduction

This report collates information from the BODC cruise inventory and oceanographic databases. It presents

Cruise Inventory Information

Long name RRS Charles Darwin (74AB) cruise CD44
Short name CD44
Objectives and Narrative 1. To collect large volume water samples and CTD profiles at standard positions between the Sound of Mull and the shelf edge of the Hebrides.
2. To work the CTD stations of the Anton Dohrn Seamount (Ellett Line) section between the shelf edge and Rockall.
3. To work a CTD section west of Rockall to Porcupine Bank.
4. To work CTD sections across the shelf edge west of Ireland as time and weather permit.
Ship RRS Charles Darwin
Departure Port Troon, United Kingdom
Departure Date 1989-11-24
Arrival Port Campbeltown, United Kingdom
Arrival Date 1989-12-02
Principal Scientist(s) Anton Edwards (Dunstaffnage Marine Laboratory)
Responsible Organisation South African Weather Service
Associated Project(s)
IHB Sea Areas Visited North East Atlantic Ocean (limit 40W)
Marsden Squares Visited 181;4/182;1/182;3/182;4
Work Area Description NE and NW Atlantic Ocean
Work Area Bounding Polygon 50N,20W; 60N,20W; 60N,5W; 50N,5W; 50N,20W
Southern Limit 50N
Northern Limit 60N
Western Limit 20W
Eastern Limit 5W

Cruise Inventory Datasets

Physical oceanography  
CTD stations Quantity: number of stations = 81
Description:  
Chemical oceanography  
Radioactivity Quantity: number of samples = 28
Description:  

Cruise Inventory Mooring/Buoy Operations

No information on datasets is currently available

Summary of BODC Data Holdings for the Cruise

National Oceanographic Database

Summary

# Series Instrument Description Parameters
80 CTD/STD cast Salinity of the water column
Temperature of the water column
Vertical spatial coordinates

Note: Parameter terms are taken from the BODC Parameter Discovery Vocabulary XML (SKOS)

Full List

BODC Reference Instrument Description Date/Time Location  
316619 CTD/STD cast 1989-11-24 14:28Z 54° 57' N, 5° 30' W Click for more
316620 CTD/STD cast 1989-11-25 02:42Z 56° 40' N, 6° 7' W Click for more
316632 CTD/STD cast 1989-11-25 04:56Z 56° 40' N, 6° 16' W Click for more
316644 CTD/STD cast 1989-11-25 06:01Z 56° 42' N, 6° 22' W Click for more
316656 CTD/STD cast 1989-11-25 06:46Z 56° 43' N, 6° 27' W Click for more
316668 CTD/STD cast 1989-11-25 08:09Z 56° 43' N, 6° 36' W Click for more
316681 CTD/STD cast 1989-11-25 09:17Z 56° 44' N, 6° 45' W Click for more
316693 CTD/STD cast 1989-11-25 10:35Z 56° 43' N, 7° 0' W Click for more
316700 CTD/STD cast 1989-11-25 11:55Z 56° 44' N, 7° 10' W Click for more
316712 CTD/STD cast 1989-11-25 13:08Z 56° 43' N, 7° 19' W Click for more
316724 CTD/STD cast 1989-11-25 14:47Z 56° 43' N, 7° 30' W Click for more
316736 CTD/STD cast 1989-11-25 15:57Z 56° 43' N, 7° 40' W Click for more
316748 CTD/STD cast 1989-11-25 17:13Z 56° 45' N, 7° 49' W Click for more
316761 CTD/STD cast 1989-11-25 18:09Z 56° 46' N, 8° 0' W Click for more
316773 CTD/STD cast 1989-11-25 19:23Z 56° 48' N, 8° 10' W Click for more
316785 CTD/STD cast 1989-11-25 20:18Z 56° 50' N, 8° 19' W Click for more
316804 CTD/STD cast 1989-11-25 23:08Z 56° 57' N, 8° 47' W Click for more
316816 CTD/STD cast 1989-11-26 00:15Z 57° 0' N, 9° 0' W Click for more
316828 CTD/STD cast 1989-11-26 01:58Z 57° 3' N, 9° 12' W Click for more
316841 CTD/STD cast 1989-11-26 03:28Z 57° 6' N, 9° 24' W Click for more
316853 CTD/STD cast 1989-11-26 05:38Z 57° 9' N, 9° 42' W Click for more
316865 CTD/STD cast 1989-11-26 08:32Z 57° 14' N, 10° 3' W Click for more
316877 CTD/STD cast 1989-11-26 11:09Z 57° 18' N, 10° 23' W Click for more
316889 CTD/STD cast 1989-11-26 13:59Z 57° 22' N, 10° 40' W Click for more
316890 CTD/STD cast 1989-11-26 16:16Z 57° 24' N, 10° 51' W Click for more
316908 CTD/STD cast 1989-11-26 17:51Z 57° 27' N, 11° 4' W Click for more
316921 CTD/STD cast 1989-11-26 19:17Z 57° 28' N, 11° 19' W Click for more
316933 CTD/STD cast 1989-11-26 20:49Z 57° 28' N, 11° 31' W Click for more
316945 CTD/STD cast 1989-11-26 23:27Z 57° 29' N, 11° 51' W Click for more
316957 CTD/STD cast 1989-11-27 02:30Z 57° 30' N, 12° 15' W Click for more
316969 CTD/STD cast 1989-11-27 05:31Z 57° 31' N, 12° 37' W Click for more
316970 CTD/STD cast 1989-11-27 07:24Z 57° 32' N, 12° 52' W Click for more
316982 CTD/STD cast 1989-11-27 08:50Z 57° 33' N, 13° 0' W Click for more
316994 CTD/STD cast 1989-11-27 10:20Z 57° 34' N, 13° 19' W Click for more
317008 CTD/STD cast 1989-11-27 11:49Z 57° 34' N, 13° 38' W Click for more
317021 CTD/STD cast 1989-11-27 13:31Z 57° 30' N, 14° 0' W Click for more
317033 CTD/STD cast 1989-11-27 15:32Z 57° 27' N, 14° 30' W Click for more
317045 CTD/STD cast 1989-11-27 17:41Z 57° 25' N, 15° 0' W Click for more
317057 CTD/STD cast 1989-11-27 19:57Z 57° 22' N, 15° 30' W Click for more
317069 CTD/STD cast 1989-11-27 22:28Z 57° 19' N, 16° 0' W Click for more
317070 CTD/STD cast 1989-11-28 01:16Z 57° 3' N, 15° 49' W Click for more
317082 CTD/STD cast 1989-11-28 04:03Z 56° 48' N, 15° 39' W Click for more
317094 CTD/STD cast 1989-11-28 06:25Z 56° 31' N, 15° 28' W Click for more
317101 CTD/STD cast 1989-11-28 08:37Z 56° 16' N, 15° 18' W Click for more
317113 CTD/STD cast 1989-11-28 10:46Z 56° 0' N, 15° 7' W Click for more
317125 CTD/STD cast 1989-11-28 12:20Z 55° 49' N, 15° 0' W Click for more
317137 CTD/STD cast 1989-11-28 14:03Z 55° 41' N, 14° 55' W Click for more
317149 CTD/STD cast 1989-11-28 16:15Z 55° 32' N, 14° 49' W Click for more
317150 CTD/STD cast 1989-11-28 19:58Z 55° 15' N, 14° 39' W Click for more
317162 CTD/STD cast 1989-11-29 00:48Z 54° 57' N, 14° 28' W Click for more
317174 CTD/STD cast 1989-11-29 05:28Z 54° 40' N, 14° 16' W Click for more
317186 CTD/STD cast 1989-11-29 09:58Z 54° 22' N, 14° 6' W Click for more
317198 CTD/STD cast 1989-11-29 15:03Z 54° 4' N, 13° 55' W Click for more
317205 CTD/STD cast 1989-11-29 17:41Z 54° 0' N, 13° 51' W Click for more
317217 CTD/STD cast 1989-11-29 19:49Z 53° 54' N, 13° 48' W Click for more
317229 CTD/STD cast 1989-11-29 21:56Z 53° 48' N, 13° 43' W Click for more
317230 CTD/STD cast 1989-11-29 23:40Z 53° 39' N, 13° 39' W Click for more
317242 CTD/STD cast 1989-11-30 01:44Z 53° 25' N, 13° 30' W Click for more
317254 CTD/STD cast 1989-11-30 03:24Z 53° 25' N, 13° 9' W Click for more
317266 CTD/STD cast 1989-11-30 05:04Z 53° 25' N, 12° 49' W Click for more
317278 CTD/STD cast 1989-11-30 06:42Z 53° 25' N, 12° 30' W Click for more
317291 CTD/STD cast 1989-11-30 08:19Z 53° 25' N, 12° 10' W Click for more
317309 CTD/STD cast 1989-11-30 09:59Z 53° 25' N, 11° 49' W Click for more
317310 CTD/STD cast 1989-11-30 11:39Z 53° 25' N, 11° 30' W Click for more
317322 CTD/STD cast 1989-11-30 13:11Z 53° 25' N, 11° 10' W Click for more
317334 CTD/STD cast 1989-12-01 02:36Z 55° 46' N, 10° 4' W Click for more
317346 CTD/STD cast 1989-12-01 05:33Z 55° 46' N, 9° 49' W Click for more
317358 CTD/STD cast 1989-12-01 08:14Z 55° 46' N, 9° 37' W Click for more
317371 CTD/STD cast 1989-12-01 10:23Z 55° 46' N, 9° 27' W Click for more
317383 CTD/STD cast 1989-12-01 12:00Z 55° 46' N, 9° 16' W Click for more
317395 CTD/STD cast 1989-12-01 14:23Z 55° 46' N, 8° 39' W Click for more
317402 CTD/STD cast 1989-12-01 16:46Z 55° 46' N, 8° 0' W Click for more
317414 CTD/STD cast 1989-12-01 17:59Z 55° 46' N, 7° 41' W Click for more
317426 CTD/STD cast 1989-12-01 18:58Z 55° 46' N, 7° 28' W Click for more
317438 CTD/STD cast 1989-12-01 19:52Z 55° 46' N, 7° 16' W Click for more
317451 CTD/STD cast 1989-12-01 20:49Z 55° 46' N, 7° 3' W Click for more
317463 CTD/STD cast 1989-12-01 21:33Z 55° 46' N, 6° 55' W Click for more
317475 CTD/STD cast 1989-12-01 22:27Z 55° 46' N, 6° 46' W Click for more
317487 CTD/STD cast 1989-12-01 23:09Z 55° 46' N, 6° 37' W Click for more
317499 CTD/STD cast 1989-12-02 00:02Z 55° 46' N, 6° 30' W Click for more

Project Database

No data currently held for this cruise in the BODC Project Database

References

Track Charts

Track Chart

Reports

Cruise Report